Location: Austin
(30.3000°N, 97.7500°W)
Time: 00:29:01
(UTC-05:00)

Envisat - Pass Details

Date: 01 August 2025
Orbit: 761 x 763 km, 98.4° (Epoch: 15 March)

Event Time Altitude Azimuth Distance (km) Brightness Sun altitude
Rises 04:55:35 0° 359° (N) 3,226 6.8 -22.2°
Maximum altitude 05:02:29 30° 289° (WNW) 1,332 3.9 -21.0°
Enters shadow 05:02:41 30° 284° (WNW) 1,335 3.9 -21.0°
